Regional Weather Roundup
Issued by NWS

Home | Current Version | Previous Version | Graphics & Text | Print | Product List | Glossary On
Versions: 1 2 3 4 5 6 7 8 9 10 11 12 13 14 15 16 17 18 19 20 21 22 23 24 25 26 27 28 29 30 31 32 33 34 35 36 37 38 39 40 41 42 43 44 45 46 47 48 49 50
000
ASUS43 KDTX 030810
RWRMI
MICHIGAN HOURLY REGIONAL WEATHER ROUNDUP
NATIONAL WEATHER SERVICE DETROIT/PONTIAC MI
300 AM EST TUE MAR 03 2015

NOTE: "FAIR" INDICATES FEW OR NO CLOUDS BELOW 12,000 FEET WITH NO
SIGNIFICANT WEATHER AND/OR OBSTRUCTION TO VISIBILITY.

MIZ047>049-052>055-059>063-066>070-074>076-081>083-030900-
SOUTHEAST LOWER MICHIGAN

CITY           SKY/WX    TMP DP  RH WIND       PRES   REMARKS
ADRIAN         CLOUDY    21  14  74 CALM      30.28F
ALMA           CLOUDY    23  17  78 CALM      30.25F
ANN ARBOR      CLOUDY    21  15  78 S5        30.27F WCI  15
BAD AXE        CLOUDY    18  12  77 S6        30.28F WCI   9
CARO           CLOUDY    21  11  66 SE3       30.26F
DETROIT CITY   CLOUDY    26  15  63 S5        30.30F WCI  20
DETROIT        CLOUDY    24  16  71 S7        30.30F WCI  16
FLINT          CLOUDY    24  14  65 S5        30.27F WCI  18
GROSSE ILE     CLOUDY    23  18  80 CALM      30.29F
HILLSDALE      CLOUDY    23  15  70 SE3       30.22F
HOWELL         CLOUDY    24  15  68 S6        30.24F WCI  16

CITY           SKY/WX    TMP DP  RH WIND       PRES   REMARKS
JACKSON        CLOUDY    23  15  71 S6        30.23F WCI  16
LAMBERTVILLE   CLOUDY    25  16  68 CALM      30.28F
LANSING        CLOUDY    25  15  66 S7        30.24F WCI  17
LAPEER         CLOUDY    21  11  63 CALM      30.27F
MASON          CLOUDY    24  15  70 S7        30.23F WCI  16
MONROE         CLOUDY    23  18  80 CALM      30.28F
MT. CLEMENS    CLOUDY    17  13  83 CALM      30.27F
PONTIAC        CLOUDY    23  14  68 S5        30.25F WCI  17
PORT HOPE        N/A     20   9  62 S6        30.27F WCI  12
PORT HURON     CLOUDY    18  14  86 SE3       30.31F
TRI CITIES     CLOUDY    23  13  65 S6        30.26F WCI  16
TROY           CLOUDY    26  15  62 S3        30.30F
SAGINAW HB     CLOUDY    23  16  74 S3        30.26F
$$
MIZ043>046-050>051-056>058-064>065-071>073-077>080-030900-
SOUTHWEST LOWER MICHIGAN

CITY           SKY/WX    TMP DP  RH WIND       PRES   REMARKS
BATTLE CREEK   CLOUDY    25  15  66 S7        30.22F WCI  17
BENTON HARBOR  CLOUDY    25  15  66 SE7       30.22F WCI  17
BIG RAPIDS     CLOUDY    22  14  72 CALM      30.20F
COLDWATER      CLOUDY    23  16  73 S3        30.23F
FREMONT        LGT SNOW  22  17  83 SE3       30.21F
HOLLAND        CLOUDY    25  16  68 S5        30.23F WCI  19
GRAND RAPIDS   CLOUDY    24  15  68 SE3       30.22F
IONIA          CLOUDY    24  17  75 SE3       30.22F
KALAMAZOO      CLOUDY    25  14  63 S7        30.22F WCI  17
LUDINGTON      FLURRIES  24  17  76 S5        30.20F WCI  18
MARSHALL       CLOUDY    23  15  71 S6        30.23F WCI  15
MOUNT PLEASANT CLOUDY    22  14  70 SE3       30.23F
MUSKEGON       CLOUDY    24  16  71 SE7       30.22F WCI  16
SOUTH HAVEN    CLOUDY    27  16  64 S5        30.22F WCI  21
$$
MIZ016>042-030900-
NORTHERN LOWER MICHIGAN

CITY           SKY/WX    TMP DP  RH WIND       PRES   REMARKS
ALPENA         PTCLDY    -4 -10  75 CALM      30.24F
BEAVER ISLAND  MOCLDY    15   8  74 SE5       30.17F WCI   7
BELLAIRE       MOCLDY     6   2  84 CALM      30.21F
CADILLAC       CLOUDY    18  11  74 S7        30.16F WCI   9
CHARLEVOIX     CLOUDY     9   4  81 CALM      30.21F
FRANKFORT      CLOUDY    21  15  78 S7        30.18F WCI  13
GAYLORD        MOCLDY     6   0  76 S5        30.15F WCI  -3
GRAYLING       MOCLDY     3  -3  75 CALM      30.17F
HARBOR SPRINGS MOCLDY     6   1  82 NE5       30.19F WCI  -3
HOUGHTON LAKE  CLOUDY    11   5  77 S3        30.18F
MANISTEE       CLOUDY    21  12  68 S6        30.20F WCI  14
OSCODA         MOCLDY    10   5  77 S6        30.24F WCI   1
PELLSTON       MOCLDY    -9 -14  78 CALM      30.21F
ROGERS CITY    PTCLDY     8   2  78 CALM      30.24F
TRAVERSE CITY  CLOUDY    18   8  65 CALM      30.18F
$$
MIZ007>008-015-030900-
EASTERN UPPER MICHIGAN

CITY           SKY/WX    TMP DP  RH WIND       PRES   REMARKS
KINROSS        CLOUDY     5   3  92 S8        30.18F WCI  -8
MACKINAC ISLAN MOCLDY    14   4  65 S9        30.19F WCI   2
NEWBERRY       CLOUDY    13   9  83 S10       30.13F WCI   0
S. S. MARIE    MOCLDY     0  -5  79 CALM      30.19F
MUNISING         N/A     17   8  67 S7        30.10F WCI   8
$$
MIZ004>006-011>014-085-030900-
CENTRAL UPPER MICHIGAN

CITY           SKY/WX    TMP DP  RH WIND       PRES   REMARKS
MANISTIQUE     CLOUDY    21  19  89 S9G17     30.14F WCI  11
ESCANABA       MOCLDY    19  16  86 S5        30.13F WCI  13
MENOMINEE      CLOUDY    23  14  68 SW12      30.12F WCI  12
SAWYER-GWINN   CLOUDY    14   7  75 S9        30.03F WCI   2
$$
MIZ001>003-009>011-084-030900-
WESTERN UPPER MICHIGAN

CITY           SKY/WX    TMP DP  RH WIND       PRES   REMARKS
IRON MOUNTAIN  CLOUDY    18   8  65 S6        30.05F WCI  10
HOUGHTON       CLOUDY    13   1  59 S3        29.97F
COPPER HARBOR    N/A     19   3  49 W9        30.00F WCI   8
IRONWOOD       CLOUDY    21   5  49 S15G22    29.93F WCI   8
$$

ABBREVIATIONS USED IN REMARKS
   TC - TEMPERATURE IN CELSIUS
  WCI - WIND CHILL INDEX
   HX - HEAT INDEX
  VSB - VISIBILITY



USA.gov is the U.S. government's official web portal to all federal, state and local government web resources and services.